Weather History for Charleston, SC

Change the Weather History Date:

Thursday, June 13, 2013

  Actual Average (KCHS) Record (KCHS)
Temperature  
Mean Temperature 86 °F 79 °F  
Max Temperature 93 °F 88 °F 99 °F (2011)
Min Temperature 80 °F 69 °F 57 °F (1979)
Degree Days  
Heating Degree Days 0 0  
Month to date heating degree days 0  
Since 1 June heating degree days 0  
Since 1 July heating degree days 1975  
Cooling Degree Days 22 14  
Month to date cooling degree days 164  
Year to date cooling degree days 526  
Since 1 June cooling degree days 164  
Growing Degree Days 36 (Base 50)    
Moisture  
Dew Point 77 °F    
Average Humidity 76    
Maximum Humidity 94    
Minimum Humidity 52    
Precipitation  
Precipitation 0.00 in 0.19 in 2.49 in (2006)
Month to date precipitation 2.16  
Year to date precipitation 18.47  
Sea Level Pressure  
Sea Level Pressure 29.85 in    
Wind  
Wind Speed 8 mph (SW)    
Max Wind Speed 17 mph    
Max Gust Speed 22 mph    
Visibility 8 miles    
Events      
T = Trace of Precipitation, MM = Missing Value Source: NWS Daily Summary

Daily Weather History Graph

Daily Weather History Graph

Search for Another Location

Airport:

Trip Planner

Search our weather history database for the weather conditions in past years. The results will help you decide how hot, cold, wet, or windy it might be!

Date:

Astronomy

Jun. 13, 2013 Rise Set
Actual Time 6:11 AM EDT 8:28 PM EDT
Civil Twilight 5:43 AM EDT 8:57 PM EDT
Nautical Twilight 5:08 AM EDT 9:32 PM EDT
Astronomical Twilight 4:30 AM EDT 10:10 PM EDT
Moon 10:34 AM EDT (6/13) 11:48 PM EDT (6/13)
Length of Visible Light 15h 14m
Length of Day
14h 17m
Waxing Crescent, 21% of the Moon is Illuminated
Jun 13
Waxing Crescent
Jun 16
First Quarter
Jun 23
Full
Jun 30
Last Quarter
Jul 8
New

Hourly Weather History & Observations

Time (EDT) Temp. Heat Index Dew Point Humidity Pressure Visibility Wind Dir Wind Speed Gust Speed Precip Events Conditions
12:15 AM 82.4 °F 92.4 °F 78.8 °F 89% 29.94 in 7.0 mi SSW 10.4 mph - 0.00 in   Clear
12:35 AM 82.4 °F 92.4 °F 78.8 °F 89% 29.94 in 7.0 mi SSW 8.1 mph - 0.00 in   Clear
12:55 AM 82.4 °F 92.4 °F 78.8 °F 89% 29.93 in 7.0 mi SSW 6.9 mph - 0.00 in   Clear
1:15 AM 82.4 °F 92.4 °F 78.8 °F 89% 29.93 in 7.0 mi SSW 9.2 mph - 0.00 in   Clear
1:35 AM 82.4 °F 92.4 °F 78.8 °F 89% 29.92 in 7.0 mi SSW 8.1 mph - 0.00 in   Clear
1:55 AM 82.4 °F 92.4 °F 78.8 °F 89% 29.92 in 7.0 mi SSW 8.1 mph - 0.00 in   Clear
2:15 AM 82.4 °F 92.4 °F 78.8 °F 89% 29.91 in 7.0 mi SSW 8.1 mph - 0.00 in   Clear
2:35 AM 80.6 °F 88.1 °F 78.8 °F 94% 29.91 in 7.0 mi SSW 9.2 mph - 0.00 in   Clear
2:55 AM 80.6 °F 88.1 °F 78.8 °F 94% 29.90 in 7.0 mi SSW 8.1 mph - 0.00 in   Clear
3:15 AM 80.6 °F 88.1 °F 78.8 °F 94% 29.90 in 7.0 mi SW 9.2 mph - 0.00 in   Clear
3:35 AM 80.6 °F 88.1 °F 78.8 °F 94% 29.90 in 5.0 mi SW 6.9 mph - 0.00 in   Clear
3:55 AM 80.6 °F 88.1 °F 78.8 °F 94% 29.90 in 5.0 mi SW 6.9 mph - 0.00 in   Clear
4:15 AM 80.6 °F 88.1 °F 78.8 °F 94% 29.90 in 5.0 mi SW 5.8 mph - 0.00 in   Clear
4:35 AM 80.6 °F 88.1 °F 78.8 °F 94% 29.91 in 5.0 mi SW 5.8 mph - 0.00 in   Clear
4:55 AM 80.6 °F 88.1 °F 78.8 °F 94% 29.90 in 5.0 mi WSW 4.6 mph - 0.00 in   Clear
5:15 AM 80.6 °F 88.1 °F 78.8 °F 94% 29.90 in 5.0 mi WSW 4.6 mph - 0.00 in   Clear
5:35 AM 80.6 °F 88.1 °F 78.8 °F 94% 29.90 in 5.0 mi Calm Calm - 0.00 in   Clear
5:55 AM 80.6 °F 88.1 °F 78.8 °F 94% 29.91 in 5.0 mi Calm Calm - 0.00 in   Clear
6:15 AM 80.6 °F 87.1 °F 77.0 °F 89% 29.91 in 6.0 mi Calm Calm - 0.00 in   Clear
6:35 AM 80.6 °F 87.1 °F 77.0 °F 89% 29.91 in 5.0 mi Calm Calm - 0.00 in   Clear
6:55 AM 80.6 °F 87.1 °F 77.0 °F 89% 29.91 in 5.0 mi WSW 4.6 mph - 0.00 in   Clear
7:15 AM 80.6 °F 87.1 °F 77.0 °F 89% 29.91 in 7.0 mi West 3.5 mph - 0.00 in   Clear
7:35 AM 82.4 °F 89.5 °F 75.2 °F 79% 29.92 in 9.0 mi West 4.6 mph - 0.00 in   Clear
7:55 AM 84.2 °F 94.1 °F 77.0 °F 79% 29.92 in 9.0 mi WSW 3.5 mph - 0.00 in   Clear
8:15 AM 84.2 °F 92.3 °F 75.2 °F 74% 29.92 in 10.0 mi WSW 5.8 mph - 0.00 in   Clear
8:35 AM 84.2 °F 92.3 °F 75.2 °F 74% 29.92 in 10.0 mi WSW 6.9 mph - 0.00 in   Clear
8:55 AM 86.0 °F 96.9 °F 77.0 °F 74% 29.91 in 10.0 mi SW 5.8 mph - 0.00 in   Clear
9:15 AM 87.8 °F 99.7 °F 77.0 °F 70% 29.91 in 10.0 mi SW 6.9 mph - 0.00 in   Clear
9:35 AM 87.8 °F 99.7 °F 77.0 °F 70% 29.91 in 10.0 mi WSW 5.8 mph - 0.00 in   Clear
9:55 AM 89.6 °F 102.2 °F 77.0 °F 66% 29.90 in 10.0 mi WSW 4.6 mph - 0.00 in   Clear
10:15 AM 89.6 °F 102.2 °F 77.0 °F 66% 29.90 in 10.0 mi West 6.9 mph - 0.00 in   Clear
10:35 AM 89.6 °F 102.2 °F 77.0 °F 66% 29.90 in 10.0 mi SW 9.2 mph - 0.00 in   Clear
10:55 AM 91.4 °F 102.5 °F 75.2 °F 59% 29.90 in 10.0 mi SW 8.1 mph - 0.00 in   Clear
11:15 AM 91.4 °F 102.5 °F 75.2 °F 59% 29.90 in 10.0 mi WSW 9.2 mph - 0.00 in   Clear
11:35 AM 91.4 °F 102.5 °F 75.2 °F 59% 29.89 in 10.0 mi WSW 9.2 mph - 0.00 in   Clear
11:55 AM 91.4 °F 102.5 °F 75.2 °F 59% 29.88 in 10.0 mi WSW 8.1 mph 16.1 mph 0.00 in   Clear
12:15 PM 93.2 °F 105.0 °F 75.2 °F 56% 29.88 in 10.0 mi WSW 13.8 mph 17.3 mph 0.00 in   Partly Cloudy
12:35 PM 93.2 °F 102.4 °F 73.4 °F 52% 29.87 in 10.0 mi WSW 13.8 mph 20.7 mph 0.00 in   Scattered Clouds
12:55 PM 93.2 °F 102.4 °F 73.4 °F 52% 29.86 in 10.0 mi SW 9.2 mph 18.4 mph 0.00 in   Scattered Clouds
1:15 PM 93.2 °F 102.4 °F 73.4 °F 52% 29.86 in 10.0 mi SW 10.4 mph 16.1 mph 0.00 in   Scattered Clouds
1:35 PM 93.2 °F 105.0 °F 75.2 °F 56% 29.85 in 10.0 mi SW 5.8 mph 18.4 mph 0.00 in   Scattered Clouds
1:55 PM 93.2 °F 102.4 °F 73.4 °F 52% 29.84 in 10.0 mi SW 17.3 mph 21.9 mph 0.00 in   Scattered Clouds
2:15 PM 93.2 °F 102.4 °F 73.4 °F 52% 29.83 in 10.0 mi SW 12.7 mph 21.9 mph 0.00 in   Partly Cloudy
2:35 PM 91.4 °F 105.1 °F 77.0 °F 63% 29.82 in 10.0 mi SW 6.9 mph 21.9 mph 0.00 in   Partly Cloudy
2:55 PM 91.4 °F 107.2 °F 78.8 °F 66% 29.81 in 10.0 mi South 13.8 mph 18.4 mph 0.00 in   Scattered Clouds
3:15 PM 91.4 °F 107.2 °F 78.8 °F 66% 29.81 in 10.0 mi South 16.1 mph 20.7 mph 0.00 in   Scattered Clouds
3:35 PM 91.4 °F 105.1 °F 77.0 °F 63% 29.80 in 10.0 mi SSW 15.0 mph 18.4 mph 0.00 in   Clear
3:55 PM 91.4 °F 107.2 °F 78.8 °F 66% 29.79 in 10.0 mi SSW 9.2 mph - 0.00 in   Clear
4:15 PM 91.4 °F 107.2 °F 78.8 °F 66% 29.79 in 10.0 mi SSW 15.0 mph - 0.00 in   Partly Cloudy
4:35 PM 91.4 °F 107.2 °F 78.8 °F 66% 29.78 in 10.0 mi SSW 13.8 mph - 0.00 in   Clear
4:55 PM 91.4 °F 107.2 °F 78.8 °F 66% 29.79 in 10.0 mi SSW 13.8 mph 20.7 mph 0.00 in   Clear
5:15 PM 91.4 °F 107.2 °F 78.8 °F 66% 29.79 in 10.0 mi SSW 12.7 mph 16.1 mph 0.00 in   Clear
5:35 PM 89.6 °F 104.7 °F 78.8 °F 70% 29.78 in 9.0 mi SSW 12.7 mph 16.1 mph 0.00 in   Clear
5:55 PM 89.6 °F 104.7 °F 78.8 °F 70% 29.77 in 9.0 mi SSW 12.7 mph 18.4 mph 0.00 in   Clear
6:15 PM 89.6 °F 104.7 °F 78.8 °F 70% 29.77 in 10.0 mi SSW 12.7 mph 17.3 mph 0.00 in   Clear
6:35 PM 87.8 °F 102.5 °F 78.8 °F 75% 29.77 in 9.0 mi SSW 13.8 mph 18.4 mph 0.00 in   Clear
6:55 PM 87.8 °F 102.5 °F 78.8 °F 75% 29.77 in 8.0 mi SSW 11.5 mph 20.7 mph 0.00 in   Clear
7:15 PM 86.0 °F 99.3 °F 78.8 °F 79% 29.78 in 8.0 mi SSW 13.8 mph 20.7 mph 0.00 in   Clear
7:35 PM 86.0 °F 99.3 °F 78.8 °F 79% 29.78 in 7.0 mi SSW 12.7 mph 19.6 mph 0.00 in   Clear
7:55 PM 84.2 °F 96.1 °F 78.8 °F 84% 29.78 in 7.0 mi SSW 10.4 mph 18.4 mph 0.00 in   Clear
8:15 PM 84.2 °F 96.1 °F 78.8 °F 84% 29.79 in 6.0 mi SW 10.4 mph - 0.00 in   Haze
8:35 PM 84.2 °F 94.1 °F 77.0 °F 79% 29.79 in 7.0 mi SW 11.5 mph - 0.00 in   Clear
8:55 PM 84.2 °F 94.1 °F 77.0 °F 79% 29.79 in 7.0 mi SW 11.5 mph - 0.00 in   Clear
9:15 PM 84.2 °F 94.1 °F 77.0 °F 79% 29.78 in 8.0 mi SSW 11.5 mph 17.3 mph 0.00 in   Clear
9:35 PM 84.2 °F 94.1 °F 77.0 °F 79% 29.77 in 8.0 mi SSW 9.2 mph - 0.00 in   Clear
10:15 PM 84.2 °F 96.1 °F 78.8 °F 84% 29.76 in 7.0 mi SSW 11.5 mph 16.1 mph 0.00 in   Clear
10:35 PM 84.2 °F 94.1 °F 77.0 °F 79% 29.75 in 8.0 mi SSW 12.7 mph 18.4 mph 0.00 in   Clear
10:55 PM 84.2 °F 94.1 °F 77.0 °F 79% 29.76 in 8.0 mi SW 10.4 mph - 0.00 in   Clear
11:15 PM 84.2 °F 94.1 °F 77.0 °F 79% 29.75 in 8.0 mi SSW 10.4 mph - 0.00 in   Clear
11:35 PM 84.2 °F 92.3 °F 75.2 °F 74% 29.76 in 8.0 mi SW 10.4 mph - 0.00 in   Clear
11:55 PM 84.2 °F 92.3 °F 75.2 °F 74% 29.75 in 10.0 mi SW 9.2 mph - 0.00 in   Clear